Location: Blackfoot
(53.5367°N, 112.7800°W)
Time: 15:32:27
(UTC-06:00)

Amateur Radio Satellites - All Passes

Search period start: 26 April 2017 15:02
Search period end: 27 April 2017 15:02
Location: Blackfoot, 53.5367°N, 112.7800°W

Satellite Date Start Highest point End Downlink Frequencies (MHz)
Time Altitude Azimuth
50 SAT 26 Apr 15:04:16 15:07:34 39° 292° (WNW) 15:10:50 437.505
SPROUT 26 Apr 15:08:04 15:11:53 32° 296° (WNW) 15:15:40 437.525
BEESAT 26 Apr 15:11:46 15:14:00 13° 85° (E) 15:16:14 436.000
ITAMSAT 1 26 Apr 15:14:17 15:19:21 55° 67° (ENE) 15:24:25 435.822/435.867
BEESAT 2 26 Apr 15:27:25 15:30:52 28° 120° (ESE) 15:34:22 435.950
ESTCUBE 1 26 Apr 15:27:36 15:29:10 12° 311° (NW) 15:30:44 437.505/2401.250
BEESAT 3 26 Apr 15:28:26 15:32:20 60° 130° (SE) 15:36:20 437.485
Gurwin Techsat 1B 26 Apr 15:29:03 15:33:39 29° 267° (W) 15:38:18 435.225
Oscar 19 26 Apr 15:30:29 15:34:04 19° 272° (W) 15:37:41 437.125/150
VELOX 1 26 Apr 15:40:19 15:43:35 20° 303° (WNW) 15:46:49 145.980
ITUPSAT 1 26 Apr 15:50:58 15:55:02 27° 93° (E) 15:59:05 437.325
SO-50 26 Apr 15:54:13 15:58:35 50° 233° (SW) 16:02:56 436.795
UKube-1 26 Apr 15:59:38 16:03:33 34° 296° (WNW) 16:07:28 .
AO-7 26 Apr 15:59:46 16:08:05 79° 251° (WSW) 16:16:26 .
RS-15 26 Apr 16:21:01 16:33:30 87° 45° (NE) 16:45:27 29.354- 29.394
CUTE-I 26 Apr 16:25:03 16:26:47 12° 43° (NE) 16:28:31 437.470
AO-85 26 Apr 16:30:36 16:33:55 24° 337° (NNW) 16:37:09 145.980
DX 1 26 Apr 16:33:07 16:35:49 16° 306° (NW) 16:38:30 434.975-435.025
DOVE 4 26 Apr 16:42:04 16:45:36 19° 54° (NE) 16:49:04 437.250
MOZHAYETS 4 26 Apr 16:42:39 16:47:02 41° 98° (E) 16:51:25
BEESAT 26 Apr 16:47:47 16:52:35 79° 104° (ESE) 16:57:22 436.000
ITAMSAT 1 26 Apr 16:54:39 16:59:07 29° 266° (W) 17:03:36 435.822/435.867
YUBILEINY 26 Apr 16:56:54 17:05:34 68° 266° (W) 17:14:14 435.215
KKS-1 26 Apr 16:57:27 16:59:34 13° 86° (E) 17:01:39 437.445
BEESAT 2 26 Apr 17:04:31 17:08:27 53° 321° (NW) 17:12:26 435.950
BEESAT 3 26 Apr 17:06:36 17:10:13 31° 330° (NNW) 17:13:52 437.485
XW-2D 26 Apr 17:11:09 17:13:05 14° 57° (ENE) 17:15:03 145.860 - 145.880
XW-2B 26 Apr 17:17:45 17:19:58 15° 58° (ENE) 17:22:12 145.730 - 145.750
HO-68 26 Apr 17:19:15 17:23:45 18° 38° (NE) 17:28:15 435.675
KAITUO 1B 26 Apr 17:27:35 17:29:48 15° 58° (ENE) 17:32:02 145.475/437.950
LilacSat-2 26 Apr 17:27:58 17:30:42 19° 61° (ENE) 17:33:28 437.200
ITUPSAT 1 26 Apr 17:28:29 17:33:08 51° 293° (WNW) 17:37:45 437.325
XW-2C 26 Apr 17:29:05 17:31:46 19° 60° (ENE) 17:34:29 145.795 - 145.815
STARS 26 Apr 17:29:45 17:31:35 12° 86° (E) 17:33:26 437.465
CUBESAT XI-V 26 Apr 17:33:22 17:37:28 28° 93° (E) 17:41:33 437.345
XW-2F 26 Apr 17:53:56 17:57:12 30° 65° (ENE) 18:00:31 145.980 - 146.000
AO-7 26 Apr 17:56:10 18:02:14 22° 273° (W) 18:08:21 .
CUTE-I 26 Apr 18:00:33 18:05:38 45° 64° (ENE) 18:10:42 437.470
NUDT-PHONESAT 26 Apr 18:05:38 18:08:55 32° 67° (ENE) 18:12:15 437.300
CUTE 1.7 + AOD 2 26 Apr 18:10:40 18:12:09 12° 52° (NE) 18:13:39 437.475
AO-85 26 Apr 18:13:00 18:15:34 16° 2° (N) 18:18:08 145.980
DOVE 4 26 Apr 18:17:18 18:22:36 82° 75° (ENE) 18:27:47 437.250
MOZHAYETS 4 26 Apr 18:20:02 18:24:07 32° 297° (WNW) 18:28:12
BEESAT 26 Apr 18:26:24 18:29:52 20° 305° (NW) 18:33:19 436.000
SEEDS 26 Apr 18:30:33 18:32:15 12° 52° (NE) 18:33:57 437.485
KKS-1 26 Apr 18:32:21 18:36:50 86° 106° (ESE) 18:41:17 437.445
RS-15 26 Apr 18:34:06 18:44:52 39° 252° (WSW) 18:55:17 29.354- 29.394
XW-2D 26 Apr 18:43:01 18:46:45 83° 256° (WSW) 18:50:33 145.860 - 145.880
O/OREOS (USA 219) 26 Apr 18:43:50 18:47:10 19° 37° (NE) 18:50:30 437.305
BEESAT 2 26 Apr 18:43:58 18:47:02 20° 344° (NNW) 18:50:07 435.950
BEESAT 3 26 Apr 18:46:12 18:48:54 17° 353° (N) 18:51:37 437.485
XW-2B 26 Apr 18:49:58 18:53:43 73° 258° (WSW) 18:57:29 145.730 - 145.750
YUBILEINY 26 Apr 18:55:18 19:00:42 18° 290° (WNW) 19:06:07 435.215
KAITUO 1B 26 Apr 18:59:43 19:03:23 69° 258° (WSW) 19:07:06 145.475/437.950
LilacSat-2 26 Apr 19:01:00 19:04:41 52° 260° (W) 19:08:25 437.200
XW-2C 26 Apr 19:02:00 19:05:40 53° 260° (W) 19:09:22 145.795 - 145.815
UWE-3 26 Apr 19:02:31 19:04:02 12° 52° (NE) 19:05:33 435.000/436.395/437.385
HO-68 26 Apr 19:03:10 19:10:03 53° 61° (ENE) 19:16:58 435.675
STARS 26 Apr 19:04:16 19:08:40 83° 105° (ESE) 19:13:02 437.465
ITUPSAT 1 26 Apr 19:08:26 19:09:57 11° 314° (NW) 19:11:28 437.325
CUBESAT XI-V 26 Apr 19:10:30 19:15:03 48° 293° (WNW) 19:19:35 437.345
CUBEBUG 2 26 Apr 19:13:39 19:16:51 21° 60° (ENE) 19:20:00 437.445
XW-2F 26 Apr 19:28:01 19:31:20 30° 264° (W) 19:34:42 145.980 - 146.000
AAUSAT CUBESAT 2 26 Apr 19:36:32 19:39:50 23° 61° (ENE) 19:43:09 437.432
NUDT-PHONESAT 26 Apr 19:39:44 19:42:53 27° 265° (W) 19:46:05 437.300
CUTE-I 26 Apr 19:40:54 19:45:48 36° 264° (W) 19:50:43 437.470
CUTE 1.7 + AOD 2 26 Apr 19:43:00 19:47:11 64° 72° (ENE) 19:51:25 437.475
STRAND 1 26 Apr 19:45:31 19:48:44 16° 87° (E) 19:51:55 437.568
XW-2A 26 Apr 19:48:55 19:52:16 77° 73° (ENE) 19:55:38 145.665 - 145.685
AO-85 26 Apr 19:53:45 19:57:09 27° 26° (NNE) 20:00:35 145.980
ZACube-1 26 Apr 19:56:05 19:59:10 20° 59° (ENE) 20:02:14 437.345
DOVE 4 26 Apr 19:57:08 20:00:52 19° 273° (W) 20:04:34 437.250
AO-73 26 Apr 20:02:51 20:06:00 21° 60° (ENE) 20:09:09 145.935
SEEDS 26 Apr 20:03:00 20:07:10 69° 72° (ENE) 20:11:24 437.485
M-CUBED/EXP-1 PRIME 26 Apr 20:09:31 20:11:42 14° 91° (E) 20:13:49 437.505
KKS-1 26 Apr 20:09:56 20:12:50 17° 306° (NW) 20:15:43 437.445
Oscar 11 26 Apr 20:17:55 20:21:28 26° 61° (ENE) 20:25:04 .
O/OREOS (USA 219) 26 Apr 20:22:43 20:27:21 79° 58° (ENE) 20:31:56 437.305
DELFI C3 26 Apr 20:23:08 20:24:02 11° 52° (NE) 20:24:56 145.870
BEESAT 2 26 Apr 20:23:21 20:26:08 17° 8° (N) 20:28:55 435.950
BEESAT 3 26 Apr 20:24:44 20:27:49 20° 17° (NNE) 20:30:53 437.485
UWE-3 26 Apr 20:35:33 20:39:46 68° 73° (ENE) 20:43:56 435.000/436.395/437.385
STARS 26 Apr 20:41:37 20:44:29 17° 305° (NW) 20:47:20 437.465
CUBEBUG 2 26 Apr 20:48:52 20:53:09 61° 258° (WSW) 20:57:21 437.445
CUBESAT XI-V 26 Apr 20:50:36 20:51:22 10° 313° (NW) 20:52:08 437.345
HO-68 26 Apr 20:51:13 20:57:58 44° 262° (W) 21:04:47 435.675
OBJECT BX 26 Apr 21:01:43 21:03:58 16° 59° (ENE) 21:06:13 145.990 - 145.960
AAUSAT CUBESAT 2 26 Apr 21:10:58 21:15:02 51° 261° (W) 21:19:08 437.432
NO-84 26 Apr 21:18:10 21:21:20 31° 147° (SSE) 21:24:16 435.350 FM
CUTE 1.7 + AOD 2 26 Apr 21:20:34 21:23:28 18° 271° (W) 21:26:24 437.475
STRAND 1 26 Apr 21:23:31 21:28:40 90° 142° (SE) 21:33:47 437.568
XW-2A 26 Apr 21:24:57 21:25:31 10° 273° (W) 21:26:05 145.665 - 145.685
ZACube-1 26 Apr 21:30:59 21:35:07 60° 258° (WSW) 21:39:15 437.345
AO-85 26 Apr 21:33:59 21:37:55 76° 228° (SW) 21:41:57 145.980
AO-73 26 Apr 21:37:51 21:41:57 56° 259° (W) 21:46:02 145.935
SEEDS 26 Apr 21:40:36 21:43:20 17° 272° (W) 21:46:06 437.485
M-CUBED/EXP-1 PRIME 26 Apr 21:42:28 21:46:52 87° 291° (WNW) 21:50:53 437.505
Oscar 11 26 Apr 21:53:15 21:57:24 48° 261° (W) 22:01:37 .
DELFI C3 26 Apr 21:54:05 21:58:01 63° 72° (ENE) 22:02:00 145.870
BEESAT 2 26 Apr 22:01:16 22:04:59 33° 31° (NNE) 22:08:42 435.950
BEESAT 3 26 Apr 22:02:12 22:06:12 55° 40° (NE) 22:10:09 437.485
O/OREOS (USA 219) 26 Apr 22:03:12 22:06:11 17° 259° (W) 22:09:10 437.305
LO-87 26 Apr 22:05:42 22:07:31 13° 57° (ENE) 22:09:20 145.935 - 145.965
UWE-3 26 Apr 22:13:56 22:16:41 17° 271° (W) 22:19:25 435.000/436.395/437.385
OBJECT BX 26 Apr 22:33:38 22:37:14 65° 257° (WSW) 22:40:53 145.990 - 145.960
PRISM 26 Apr 22:55:13 22:59:04 34° 97° (E) 23:02:51 437.425
NO-84 26 Apr 22:55:19 22:58:42 84° 344° (NNW) 23:01:48 435.350 FM
SPROUT 26 Apr 22:58:54 23:00:13 11° 51° (NE) 23:01:31 437.525
STRAND 1 26 Apr 23:03:38 23:07:13 20° 307° (NW) 23:10:49 437.568
TIGRISAT 26 Apr 23:09:37 23:13:25 31° 95° (E) 23:17:15 435.000
AO-85 26 Apr 23:16:01 23:17:39 12° 247° (WSW) 23:19:18 145.980
ESTCUBE 1 26 Apr 23:17:44 23:21:59 43° 66° (ENE) 23:26:18 437.505/2401.250
M-CUBED/EXP-1 PRIME 26 Apr 23:17:48 23:20:39 17° 313° (NW) 23:23:22 437.505
DELFI C3 26 Apr 23:30:35 23:33:13 17° 271° (W) 23:35:52 145.870
UNISAT 6 26 Apr 23:30:42 23:34:54 51° 100° (E) 23:39:06 437.425
VELOX 1 26 Apr 23:31:06 23:34:34 22° 58° (ENE) 23:38:01 145.980
LO-87 26 Apr 23:36:48 23:40:27 81° 258° (WSW) 23:44:07 145.935 - 145.965
BEESAT 2 26 Apr 23:38:59 23:42:59 57° 232° (SW) 23:46:58 435.950
BEESAT 3 26 Apr 23:40:08 23:43:35 27° 240° (WSW) 23:46:58 437.485
FO-29 26 Apr 23:43:10 23:48:13 49° 100° (E) 23:53:26 435.910
AIST 2D 26 Apr 23:44:41 23:45:40 11° 87° (E) 23:46:40 435.315
UKube-1 26 Apr 23:50:51 23:52:42 13° 51° (NE) 23:54:34 .
50 SAT 27 Apr 00:10:29 00:13:17 23° 63° (ENE) 00:16:07 437.505
NANOSAT C BR1 27 Apr 00:10:32 00:12:19 12° 86° (E) 00:14:05 145.865
DX 1 27 Apr 00:21:55 00:25:38 27° 61° (ENE) 00:29:21 434.975-435.025
PRISM 27 Apr 00:30:35 00:34:20 32° 296° (WNW) 00:38:02 437.425
SPROUT 27 Apr 00:31:05 00:35:18 60° 70° (ENE) 00:39:31 437.525
NO-84 27 Apr 00:33:10 00:36:21 67° 6° (N) 00:39:18 435.350 FM
EO-79 27 Apr 00:37:17 00:40:41 23° 92° (E) 00:44:03 145.935-145.965
DUCHIFAT 1 27 Apr 00:39:10 00:42:20 21° 91° (E) 00:45:29 145.980
TIGRISAT 27 Apr 00:46:16 00:50:12 37° 294° (WNW) 00:54:10 435.000
ESTCUBE 1 27 Apr 00:54:59 00:58:56 29° 266° (W) 01:02:56 437.505/2401.250
VELOX 1 27 Apr 01:06:14 01:10:39 62° 258° (WSW) 01:15:07 145.980
UNISAT 6 27 Apr 01:07:56 01:11:23 24° 299° (WNW) 01:14:51 437.425
AIST 2D 27 Apr 01:15:52 01:19:25 80° 284° (WNW) 01:22:56 435.315
POLYITAN 1 27 Apr 01:16:12 01:20:19 52° 100° (E) 01:24:25 437.675
QB50P2 27 Apr 01:22:48 01:27:00 65° 103° (ESE) 01:31:11 145.880/145.840
UKube-1 27 Apr 01:23:40 01:27:58 66° 71° (ENE) 01:32:18 .
FO-29 27 Apr 01:28:42 01:33:14 31° 300° (WNW) 01:37:53 435.910
ITUPSAT 1 27 Apr 01:29:01 01:31:17 13° 49° (NE) 01:33:34 437.325
BUGSAT 1 27 Apr 01:39:46 01:43:13 27° 95° (E) 01:46:40 437.445
50 SAT 27 Apr 01:42:50 01:46:05 36° 262° (W) 01:49:22 437.505
NANOSAT C BR1 27 Apr 01:44:28 01:48:41 88° 105° (ESE) 01:52:53 145.865
Oscar 19 27 Apr 01:54:45 01:58:22 19° 88° (E) 02:01:57 437.125/150
DX 1 27 Apr 01:57:24 02:01:38 47° 260° (W) 02:05:54 434.975-435.025
Gurwin Techsat 1B 27 Apr 01:59:28 02:01:53 13° 83° (E) 02:04:16 435.225
SPROUT 27 Apr 02:08:29 02:11:35 19° 270° (W) 02:14:42 437.525
NO-84 27 Apr 02:10:52 02:13:49 47° 207° (SSW) 02:16:36 435.350 FM
EO-79 27 Apr 02:12:38 02:16:41 48° 292° (WNW) 02:20:43 145.935-145.965
DUCHIFAT 1 27 Apr 02:14:15 02:18:19 54° 291° (WNW) 02:22:23 145.980
MOZHAYETS 4 27 Apr 02:15:51 02:18:30 16° 53° (NE) 02:21:10
BEESAT 27 Apr 02:23:22 02:27:33 32° 61° (ENE) 02:31:45 436.000
PCSat 27 Apr 02:30:35 02:34:31 21° 108° (ESE) 02:38:27 145.827
AIST 2D 27 Apr 02:51:18 02:52:00 10° 305° (NW) 02:52:42 435.315
POLYITAN 1 27 Apr 02:52:31 02:55:51 23° 300° (WNW) 02:59:10 437.675
QB50P2 27 Apr 02:59:21 03:02:24 20° 302° (WNW) 03:05:27 145.880/145.840
UKube-1 27 Apr 03:01:25 03:04:26 18° 270° (W) 03:07:28 .
ITUPSAT 1 27 Apr 03:03:34 03:08:16 63° 69° (ENE) 03:13:00 437.325
CUBESAT XI-V 27 Apr 03:09:00 03:10:35 12° 48° (NE) 03:12:11 437.345
BUGSAT 1 27 Apr 03:14:57 03:18:42 38° 294° (WNW) 03:22:25 437.445
NANOSAT C BR1 27 Apr 03:21:22 03:23:50 15° 305° (NW) 03:26:17 145.865
ITAMSAT 1 27 Apr 03:22:50 03:24:21 11° 82° (E) 03:25:53 435.822/435.867
Oscar 19 27 Apr 03:33:06 03:38:21 84° 288° (WNW) 03:43:35 437.125/150
Gurwin Techsat 1B 27 Apr 03:37:29 03:42:50 70° 104° (ESE) 03:48:08 435.225
MOZHAYETS 4 27 Apr 03:50:26 03:55:00 81° 72° (ENE) 03:59:35
AO-7 27 Apr 03:54:35 04:01:07 25° 89° (E) 04:07:36 .
BEESAT 27 Apr 04:00:39 04:05:13 45° 261° (W) 04:09:48 436.000
KKS-1 27 Apr 04:00:41 04:04:28 28° 61° (ENE) 04:08:16 437.445
YUBILEINY 27 Apr 04:10:21 04:17:43 33° 80° (E) 04:25:07 435.215
PCSat 27 Apr 04:11:49 04:17:15 89° 311° (NW) 04:22:44 145.827
STARS 27 Apr 04:31:26 04:35:04 26° 60° (ENE) 04:38:43 437.465
CUBESAT XI-V 27 Apr 04:42:27 04:47:00 55° 69° (ENE) 04:51:36 437.345
ITUPSAT 1 27 Apr 04:42:50 04:46:31 22° 269° (W) 04:50:13 437.325
ITAMSAT 1 27 Apr 04:59:44 05:04:54 63° 103° (ESE) 05:10:02 435.822/435.867
Oscar 19 27 Apr 05:13:26 05:16:59 19° 308° (NW) 05:20:33 437.125/150
Gurwin Techsat 1B 27 Apr 05:18:04 05:22:22 26° 304° (NW) 05:26:40 435.225
M-CUBED/EXP-1 PRIME 27 Apr 05:28:04 05:30:06 13° 42° (NE) 05:32:07 437.505
MOZHAYETS 4 27 Apr 05:29:58 05:32:46 16° 273° (W) 05:35:35
STRAND 1 27 Apr 05:32:43 05:33:53 11° 43° (NE) 05:35:03 437.568
KKS-1 27 Apr 05:36:31 05:40:51 48° 260° (W) 05:45:12 437.445
AO-7 27 Apr 05:46:43 05:55:06 85° 110° (ESE) 06:03:28 .
PCSat 27 Apr 05:56:33 06:01:20 30° 332° (NNW) 06:06:08 145.827
YUBILEINY 27 Apr 06:05:08 06:13:49 75° 284° (WNW) 06:22:36 435.215
STARS 27 Apr 06:06:54 06:11:11 50° 259° (W) 06:15:31 437.465
DOVE 4 27 Apr 06:11:30 06:14:04 14° 84° (E) 06:16:34 437.250
CUTE-I 27 Apr 06:14:36 06:14:36 10° 81° (E) 06:14:36 437.470
SO-50 27 Apr 06:17:37 06:18:39 11° 109° (ESE) 06:19:41 436.795
CUBESAT XI-V 27 Apr 06:20:53 06:24:42 24° 269° (W) 06:28:32 437.345
LilacSat-2 27 Apr 06:29:23 06:30:49 12° 86° (E) 06:32:15 437.200
XW-2C 27 Apr 06:29:56 06:31:09 11° 86° (E) 06:32:22 145.795 - 145.815
ITAMSAT 1 27 Apr 06:39:45 06:44:03 27° 303° (WNW) 06:48:20 435.822/435.867
XW-2F 27 Apr 06:53:50 06:56:34 19° 91° (E) 06:59:18 145.980 - 146.000
RS-15 27 Apr 06:54:28 07:03:45 27° 100° (E) 07:13:08 29.354- 29.394
M-CUBED/EXP-1 PRIME 27 Apr 06:59:06 07:03:36 51° 61° (ENE) 07:08:07 437.505
NUDT-PHONESAT 27 Apr 07:03:42 07:06:26 19° 91° (E) 07:09:10 437.300
STRAND 1 27 Apr 07:07:04 07:11:53 44° 65° (ENE) 07:16:44 437.568
AO-7 27 Apr 07:40:01 07:47:11 34° 314° (NW) 07:54:22 .
PCSat 27 Apr 07:42:29 07:46:24 20° 358° (N) 07:50:21 145.827
XW-2D 27 Apr 07:43:13 07:47:00 60° 101° (E) 07:50:47 145.860 - 145.880
DOVE 4 27 Apr 07:47:47 07:52:35 89° 273° (W) 07:57:02 437.250
XW-2B 27 Apr 07:50:09 07:53:58 69° 102° (ESE) 07:57:47 145.730 - 145.750
CUTE-I 27 Apr 07:50:35 07:55:51 56° 101° (E) 08:01:04 437.470
SO-50 27 Apr 07:53:42 07:58:13 58° 128° (SE) 08:02:42 436.795
KAITUO 1B 27 Apr 07:58:23 08:02:09 69° 102° (ESE) 08:05:55 145.475/437.950
LilacSat-2 27 Apr 08:01:49 08:05:40 86° 285° (WNW) 08:09:32 437.200
XW-2C 27 Apr 08:02:06 08:05:56 88° 287° (WNW) 08:09:47 145.795 - 145.815
YUBILEINY 27 Apr 08:05:39 08:12:23 24° 310° (NW) 08:19:10 435.215
HO-68 27 Apr 08:11:20 08:17:33 30° 92° (E) 08:23:42 435.675
PRISM 27 Apr 08:18:41 08:19:44 11° 50° (NE) 08:20:46 437.425
FO-29 27 Apr 08:21:36 08:23:31 12° 44° (NE) 08:25:25 435.910
XW-2F 27 Apr 08:27:18 08:31:00 51° 290° (WNW) 08:34:41 145.980 - 146.000
CUBEBUG 2 27 Apr 08:33:43 08:36:31 17° 89° (E) 08:39:20 437.445
M-CUBED/EXP-1 PRIME 27 Apr 08:34:09 08:38:12 29° 260° (W) 08:42:17 437.505
NUDT-PHONESAT 27 Apr 08:37:00 08:40:36 47° 290° (WNW) 08:44:11 437.300
XW-2A 27 Apr 08:37:19 08:40:23 32° 97° (E) 08:43:26 145.665 - 145.685
TIGRISAT 27 Apr 08:41:23 08:42:30 11° 50° (NE) 08:43:36 435.000
STRAND 1 27 Apr 08:46:34 08:51:12 35° 264° (W) 08:55:52 437.568
AAUSAT CUBESAT 2 27 Apr 08:47:17 08:50:06 17° 89° (E) 08:52:54 437.432
CUTE 1.7 + AOD 2 27 Apr 08:57:02 09:01:17 54° 100° (E) 09:05:30 437.475
UNISAT 6 27 Apr 09:00:57 09:03:39 16° 56° (NE) 09:06:19 437.425
RS-15 27 Apr 09:02:08 09:14:15 75° 126° (SE) 09:26:34 29.354- 29.394
ISS 27 Apr 09:04:44 09:05:40 11° 140° (SE) 09:06:36 437.550
ZACube-1 27 Apr 09:13:18 09:16:04 17° 89° (E) 09:18:52 437.345
SEEDS 27 Apr 09:15:50 09:20:04 56° 101° (E) 09:24:15 437.485
XW-2D 27 Apr 09:18:13 09:20:50 18° 300° (WNW) 09:23:27 145.860 - 145.880
AO-73 27 Apr 09:19:42 09:22:35 18° 89° (E) 09:25:30 145.935
XW-2B 27 Apr 09:25:21 09:27:44 16° 302° (WNW) 09:30:09 145.730 - 145.750
DOVE 4 27 Apr 09:26:32 09:29:34 17° 307° (NW) 09:32:29 437.250
PCSat 27 Apr 09:26:58 09:31:35 27° 24° (NNE) 09:36:10 145.827
CUTE-I 27 Apr 09:31:04 09:35:40 30° 301° (WNW) 09:40:15 437.470
AO-7 27 Apr 09:33:15 09:37:37 16° 340° (NNW) 09:41:59 .
KAITUO 1B 27 Apr 09:33:25 09:35:44 16° 302° (WNW) 09:38:04 145.475/437.950
Oscar 11 27 Apr 09:34:15 09:37:35 21° 91° (E) 09:40:55 .
SO-50 27 Apr 09:34:37 09:38:54 38° 330° (NNW) 09:43:10 436.795
LilacSat-2 27 Apr 09:37:38 09:39:22 13° 305° (NW) 09:41:06 437.200
XW-2C 27 Apr 09:37:48 09:39:34 13° 304° (NW) 09:41:20 145.795 - 145.815
PRISM 27 Apr 09:50:04 09:54:10 58° 70° (ENE) 09:58:18 437.425
UWE-3 27 Apr 09:54:43 09:58:52 62° 101° (ESE) 10:03:04 435.000/436.395/437.385
HO-68 27 Apr 09:58:44 10:05:56 75° 293° (WNW) 10:13:07 435.675
FO-29 27 Apr 10:01:50 10:07:33 48° 66° (ENE) 10:12:45 435.910
CUBEBUG 2 27 Apr 10:09:27 10:13:35 64° 288° (WNW) 10:17:43 437.445
XW-2A 27 Apr 10:10:19 10:13:02 23° 296° (WNW) 10:15:46 145.665 - 145.685
Tancredo 1 27 Apr 10:12:15 10:15:00 29° 156° (SSE) 10:17:45 437.200
TIGRISAT 27 Apr 10:14:06 10:18:22 58° 70° (ENE) 10:22:35 435.000
AAUSAT CUBESAT 2 27 Apr 10:21:49 10:26:00 66° 288° (WNW) 10:30:10 437.432
AIST 2D 27 Apr 10:25:16 10:26:45 12° 57° (ENE) 10:28:15 435.315
CUTE 1.7 + AOD 2 27 Apr 10:33:26 10:36:50 23° 299° (WNW) 10:40:14 437.475
UNISAT 6 27 Apr 10:35:28 10:39:49 85° 252° (WSW) 10:44:09 437.425
ISS 27 Apr 10:38:27 10:41:29 36° 158° (SSE) 10:44:30 437.550
POLYITAN 1 27 Apr 10:41:08 10:43:31 15° 55° (NE) 10:45:55 437.675
O/OREOS (USA 219) 27 Apr 10:41:55 10:45:43 26° 105° (ESE) 10:49:32 437.305
QB50P2 27 Apr 10:47:16 10:50:05 18° 57° (ENE) 10:52:54 145.880/145.840
ZACube-1 27 Apr 10:48:38 10:52:48 68° 288° (WNW) 10:57:03 437.345
SEEDS 27 Apr 10:52:08 10:55:27 22° 300° (WNW) 10:58:45 437.485
AO-73 27 Apr 10:55:05 10:59:15 64° 288° (WNW) 11:03:28 145.935
DELFI C3 27 Apr 10:59:27 11:03:18 42° 98° (E) 11:07:07 145.870
NANOSAT C BR1 27 Apr 11:07:53 11:11:08 22° 60° (ENE) 11:14:24 145.865
Oscar 11 27 Apr 11:09:47 11:14:04 56° 290° (WNW) 11:18:20 .
PCSat 27 Apr 11:10:24 11:15:52 72° 47° (NE) 11:21:18 145.827
RS-15 27 Apr 11:15:26 11:27:36 59° 335° (NNW) 11:39:48 29.354- 29.394
SO-50 27 Apr 11:17:01 11:20:29 21° 353° (N) 11:23:58 436.795
AO-7 27 Apr 11:23:53 11:27:07 13° 8° (N) 11:30:20 .
PRISM 27 Apr 11:26:47 11:29:49 19° 269° (W) 11:32:53 437.425
OBJECT BX 27 Apr 11:29:39 11:33:19 67° 102° (ESE) 11:36:58 145.990 - 145.960
UWE-3 27 Apr 11:31:56 11:34:59 20° 301° (WNW) 11:38:04 435.000/436.395/437.385
EO-79 27 Apr 11:35:20 11:39:16 39° 66° (ENE) 11:43:12 145.935-145.965
DUCHIFAT 1 27 Apr 11:36:35 11:40:23 34° 65° (ENE) 11:44:10 145.980
Oscar 19 27 Apr 11:42:11 11:44:08 12° 44° (NE) 11:46:05 437.125/150
HO-68 27 Apr 11:47:14 11:52:40 24° 316° (NW) 11:58:06 435.675
FO-29 27 Apr 11:47:19 11:52:50 36° 264° (W) 11:57:54 435.910
Tancredo 1 27 Apr 11:47:33 11:50:37 60° 175° (S) 11:53:41 437.200
CUBEBUG 2 27 Apr 11:48:14 11:49:26 11° 308° (NW) 11:50:38 437.445
TIGRISAT 27 Apr 11:52:12 11:55:25 20° 269° (W) 11:58:37 435.000
AIST 2D 27 Apr 11:55:58 11:59:27 81° 257° (WSW) 12:02:58 435.315
AAUSAT CUBESAT 2 27 Apr 11:59:10 12:00:42 12° 308° (NW) 12:02:13 437.432
ISS 27 Apr 12:14:29 12:17:43 63° 178° (S) 12:20:57 437.550
POLYITAN 1 27 Apr 12:14:30 12:18:43 88° 74° (ENE) 12:22:57 437.675
UNISAT 6 27 Apr 12:15:25 12:17:15 12° 274° (W) 12:19:03 437.425
O/OREOS (USA 219) 27 Apr 12:20:20 12:24:51 54° 306° (NW) 12:29:25 437.305
QB50P2 27 Apr 12:21:10 12:25:23 76° 255° (WSW) 12:29:38 145.880/145.840
ZACube-1 27 Apr 12:26:48 12:28:22 12° 308° (NW) 12:29:57 437.345
LO-87 27 Apr 12:30:58 12:34:29 50° 100° (E) 12:37:57 145.935 - 145.965
AO-73 27 Apr 12:33:22 12:34:44 11° 308° (NW) 12:36:06 145.935
DELFI C3 27 Apr 12:34:35 12:37:55 25° 298° (WNW) 12:41:14 145.870
BUGSAT 1 27 Apr 12:35:01 12:38:58 45° 68° (ENE) 12:42:52 437.445
ESTCUBE 1 27 Apr 12:40:10 12:44:27 38° 97° (E) 12:48:41 437.505/2401.250
NANOSAT C BR1 27 Apr 12:42:26 12:46:34 55° 259° (W) 12:50:43 145.865
Oscar 11 27 Apr 12:48:14 12:49:19 11° 310° (NW) 12:50:24 .
VELOX 1 27 Apr 12:50:40 12:53:32 17° 88° (E) 12:56:22 145.980
PCSat 27 Apr 12:54:21 12:58:51 27° 248° (WSW) 13:03:19 145.827
SO-50 27 Apr 12:58:31 13:02:18 25° 18° (NNE) 13:06:05 436.795
OBJECT BX 27 Apr 13:04:22 13:06:35 16° 301° (WNW) 13:08:49 145.990 - 145.960
AO-7 27 Apr 13:11:00 13:17:00 23° 34° (NE) 13:22:59 .
EO-79 27 Apr 13:11:28 13:15:08 28° 265° (W) 13:18:49 145.935-145.965
DUCHIFAT 1 27 Apr 13:12:17 13:16:04 32° 264° (W) 13:19:52 145.980
Oscar 19 27 Apr 13:17:22 13:22:20 49° 66° (ENE) 13:27:21 437.125/150
Tancredo 1 27 Apr 13:23:21 13:26:20 45° 195° (SSW) 13:29:19 437.200
Gurwin Techsat 1B 27 Apr 13:25:50 13:30:43 39° 62° (ENE) 13:35:38 435.225
RS-15 27 Apr 13:30:46 13:42:47 51° 8° (N) 13:54:35 29.354- 29.394
AO-85 27 Apr 13:34:10 13:38:00 35° 124° (SE) 13:41:41 145.980
DX 1 27 Apr 13:39:32 13:42:45 20° 91° (E) 13:45:56 434.975-435.025
SPROUT 27 Apr 13:46:05 13:50:13 47° 99° (E) 13:54:19 437.525
ISS 27 Apr 13:50:54 13:54:01 41° 198° (SSW) 13:57:07 437.550
POLYITAN 1 27 Apr 13:53:08 13:55:08 13° 274° (W) 13:57:08 437.675
QB50P2 27 Apr 14:01:01 14:01:58 11° 276° (W) 14:02:54 145.880/145.840
O/OREOS (USA 219) 27 Apr 14:02:35 14:05:20 15° 328° (NNW) 14:08:04 437.305
LO-87 27 Apr 14:05:06 14:07:37 18° 300° (WNW) 14:10:08 145.935 - 145.965
YUBILEINY 27 Apr 14:10:37 14:17:39 26° 51° (NE) 14:24:39 435.215
BUGSAT 1 27 Apr 14:11:10 14:14:31 24° 267° (W) 14:17:52 437.445
ESTCUBE 1 27 Apr 14:17:06 14:21:13 34° 296° (WNW) 14:25:19 437.505/2401.250
VELOX 1 27 Apr 14:26:04 14:30:32 75° 288° (WNW) 14:34:56 145.980
50 SAT 27 Apr 14:32:32 14:36:04 87° 284° (WNW) 14:39:33 437.505
SO-50 27 Apr 14:38:59 14:43:31 67° 40° (NE) 14:48:00 436.795
UKube-1 27 Apr 14:40:09 14:44:22 48° 100° (E) 14:48:33 .
ITAMSAT 1 27 Apr 14:45:30 14:50:09 34° 61° (ENE) 14:54:50 435.822/435.867
